This demonstration page uses our WeatherBlox Daily Observations layout. Learn more.

Left ArrowRight Arrow

39.01783, -85.05884

Hourly Observations for September 17, 2018

Temp ( °F °C ) Dew Point ( °F °C ) Humidity (%) Winds ( mph kmh ) Pressure ( in mb ) Visibility ( mi km ) Precip ( " mm )
12:52 am 00:52 Cloudy 76 24.4 68 20 77 77 NE 10 17 29.95 1014 10 16 N/A
1:52 am 01:52 Cloudy 75 23.9 69 20.6 82 82 NE 9 15 29.92 1013 10 16 N/A
2:52 am 02:52 Cloudy with Light Rain 74 23.3 69 20.6 85 85 NE 9 15 29.91 1013 7 11 N/A
3:52 am 03:52 Cloudy 74 23.3 69 20.6 85 85 NE 12 19 29.89 1012 10 16 N/A
4:52 am 04:52 Cloudy 74 23.3 68 20 82 82 NE 13 20 29.88 1012 10 16 N/A
5:52 am 05:52 Cloudy with Light Rain 73 22.8 68 20 84 84 NNE 12 19 29.88 1012 10 16 0.01 0.25
6:52 am 06:52 Cloudy with Light Rain 71 21.7 69 20.6 94 94 NNE 10 17 29.88 1012 8 13 0.02 0.51
7:52 am 07:52 Cloudy with Light Rain 70 21.1 69 20.6 97 97 NNE 12 19 29.88 1012 6 10 0.04 1.02
8:52 am 08:52 Cloudy with Light Rain 71 21.7 69 20.6 94 94 NNE 10 17 29.89 1012 10 16 0.01 0.25
9:52 am 09:52 Cloudy with Light Rain 71 21.7 70 21.1 96 96 N 10 17 29.89 1012 7 11 0.01 0.25
10:25 am 10:25 Cloudy with Light Rain 71 21.7 70 21.1 96 96 N 9 15 29.91 1013 6 10 0.02 0.51
10:52 am 10:52 Cloudy with Light Rain 71 21.7 70 21.1 96 96 N 8 13 29.90 1013 5 8 0.07 1.78
11:52 am 11:52 Cloudy with Light Rain 72 22.2 71 21.7 97 97 NNW 9 15 29.90 1013 5 8 0.04 1.02
12:52 pm 12:52 Cloudy with Light Rain 73 22.8 72 22.2 96 96 NNW 9 15 29.90 1012 8 13 0.01 0.25
1:20 pm 13:20 Cloudy 73 22.8 71 21.7 94 94 NNW 10 17 29.91 1013 8 13 N/A
1:52 pm 13:52 Cloudy 74 23.3 72 22.2 94 94 NW 8 13 29.89 1012 10 16 N/A
2:25 pm 14:25 Cloudy 75 23.9 71 21.7 88 88 NW 10 17 29.88 1012 10 16 N/A
2:52 pm 14:52 Cloudy 74 23.3 72 22.2 94 94 NW 8 13 29.88 1012 10 16 N/A
3:52 pm 15:52 Mostly Cloudy 75 23.9 72 22.2 90 90 W 8 13 29.87 1011 10 16 N/A
4:52 pm 16:52 Mostly Cloudy 78 25.6 72 22.2 82 82 W 8 13 29.85 1011 10 16 N/A
5:52 pm 17:52 Mostly Cloudy 79 26.1 72 22.2 79 79 W 6 9 29.85 1011 10 16 N/A
6:52 pm 18:52 Mostly Cloudy 79 26.1 72 22.2 79 79 WSW 5 7 29.86 1011 10 16 N/A
7:52 pm 19:52 Mostly Cloudy 78 25.6 71 21.7 79 79 WSW 8 13 29.87 1011 10 16 N/A
8:52 pm 20:52 Cloudy 76 24.4 72 22.2 88 88 WSW 6 9 29.88 1012 10 16 N/A
9:52 pm 21:52 Mostly Cloudy 74 23.3 71 21.7 91 91 N N/A 29.90 1013 10 16 N/A
10:52 pm 22:52 Mostly Clear 72 22.2 70 21.1 94 94 W 7 11 29.91 1013 10 16 N/A
11:52 pm 23:52 Clear 70 21.1 69 20.6 97 97 N N/A 29.92 1013 10 16 N/A

Powered by AerisWeather